Location: Gleizolles
(44.4833°N, 6.7667°E)
Time: 03:13:56
(UTC+00:00)

BlueWalker 3 - Visible Passes

Search period start: 07 December 2022 00:00
Search period end: 17 December 2022 00:00
Orbit: 501 x 518 km, 53.2° (Epoch: 06 December)

Date Brightness Start Highest point End Pass type
(mag) Time Alt. Az. Time Alt. Az. Time Alt. Az.
07 Dec 2.2 17:45:21 10° NW 17:49:06 49° NNE 17:49:06 49° NNE visible
08 Dec 2.1 17:26:56 10° NW 17:30:46 52° NNE 17:31:50 38° ENE visible
08 Dec 5.0 19:05:53 10° WNW 19:06:41 15° W 19:06:41 15° W visible
09 Dec 2.1 17:08:31 10° NW 17:12:22 54° NNE 17:14:45 21° E visible
09 Dec 4.3 18:47:31 10° WNW 18:49:38 23° WSW 18:49:38 23° WSW visible
10 Dec 2.0 16:50:05 10° NW 16:53:58 57° NNE 16:57:48 10° ESE visible
10 Dec 3.9 18:29:10 10° WNW 18:32:24 25° SW 18:32:48 25° SW visible
11 Dec 2.0 16:31:40 10° NW 16:35:34 60° NNE 16:39:23 10° ESE visible
11 Dec 4.2 18:10:48 10° WNW 18:13:57 24° SW 18:16:19 14° S visible
12 Dec 4.4 17:52:25 10° W 17:55:30 22° SW 17:58:34 10° S visible
13 Dec 4.6 17:34:04 10° W 17:37:03 21° SW 17:40:01 10° S visible
14 Dec 4.8 17:15:43 10° W 17:18:36 20° SW 17:21:27 10° S visible
15 Dec 5.0 16:57:22 10° W 17:00:08 19° SW 17:02:52 10° S visible
16 Dec 5.1 16:39:01 10° W 16:41:39 17° SW 16:44:16 10° S visible
